Location: Franzen
(48.6167°N, 15.3833°E)
Time: 08:30:29
(UTC+00:00)

A-11 Canister half - Pass Details

Date: 30 July 2021
Orbit: 1515 x 1685 km, 47.2° (Epoch: 21 September)

Event Time Altitude Azimuth Distance (km) Brightness Sun altitude
Rises 17:35:56 0° 245° (WSW) 4,813 12.4 8.7°
Reaches altitude 10° 17:39:00 10° 244° (WSW) 3,850 11.9 8.2°
Maximum altitude 17:48:50 73° 162° (SSE) 1,723 9.3 6.7°
Drops below altitude 10° 17:58:57 10° 81° (E) 3,950 10.7 5.1°
Sets 18:02:08 0° 79° (E) 4,943 11.1 4.6°
